Location: Alincthun
(50.7310°N, 1.8022°E)
Time: 00:26:24
(UTC+00:00)

USA 229 - Pass Details

Date: 17 February 2020
Orbit: 986 x 1226 km, 63.4° (Epoch: 26 March)

Event Time Altitude Azimuth Distance (km) Brightness Sun altitude
Exits shadow 03:35:51 49° 156° (SSE) 1,493 4.3 -32.8°
Drops below altitude 10° 03:41:08 10° 146° (SE) 3,142 6.2 -32.1°
Sets 03:43:56 0° 145° (SE) 4,121 6.9 -31.7°
